CAPE
0 0 12 234 1065 1817 2221 1982 1856 1654 1234 676 737 379 259 261 201 216 432 426 163 334 109 16 36 28 45 38 75 188 146 119
0 0 10 518 1369 1949 2211 1947 1772 1463 1125 888 656 688 414 272 161 74 84 169 344 353 50 9 6 33 5 26 58 143 137 106
0 0 5 835 1484 1942 2125 1805 1610 1334 1041 717 494 460 575 421 290 187 48 61 186 33 47 4 13 15 2 1 57 92 153 113
0 0 15 982 1390 1970 2029 1751 1448 1184 937 658 432 174 295 164 298 372 143 269 242 192 14 7 18 1 0 1 32 78 104 106
0 0 37 890 1318 1787 1955 1747 1430 1183 946 611 454 346 107 312 223 251 200 146 255 142 13 4 6 1 1 0 47 76 89 116
0 0 0 661 1254 1739 1890 1693 1464 1181 1030 848 534 298 285 274 130 149 48 30 6 2 1 3 3 2 1 0 43 80 114 120
0 0 0 407 1095 1856 1790 1688 1463 1239 1187 791 471 300 266 325 158 126 18 15 6 2 1 3 5 5 2 0 43 107 141 162
9 0 20 178 974 1644 1725 1641 1198 1256 1047 700 383 287 323 95 210 107 19 3 5 3 1 2 1 2 18 26 58 103 138 148
408 66 110 460 984 1508 1579 1519 990 1123 1016 679 347 280 270 292 237 93 49 14 7 3 3 2 1 1 0 24 98 128 123 171
623 205 556 723 1219 1288 1166 1171 507 793 846 595 261 236 90 102 90 121 182 116 44 14 3 1 1 0 0 0 3 39 105 101
6 430 721 886 1158 578 416 643 277 381 623 424 156 144 53 108 100 37 10 17 28 60 30 4 1 0 0 0 0 0 0 4
4 45 786 853 328 183 303 199 216 159 113 127 28 48 46 66 56 33 16 44 42 47 67 35 5 3 1 0 0 0 0 0
3 4 0 63 70 89 91 176 45 8 24 41 27 16 12 27 22 24 29 28 26 37 35 46 16 6 3 4 2 0 0 0
2 2 2 2 2 2 1 27 35 11 23 12 11 15 36 17 7 8 8 9 3 15 33 41 35 20 15 5 3 7 5 0
2 3 3 2 3 1 1 1 0 2 4 0 4 2 19 19 11 35 31 22 5 2 6 18 18 9 6 7 10 7 7 8
2 4 4 1 1 1 1 1 0 1 1 0 0 0 0 0 0 0 1 0 0 0 3 0 0 0 0 0 0 1 50 66
1 3 2 2 1 1 1 1 0 0 0 0 0 0 0 0 1 3 1 1 0 0 0 0 0 0 1 0 0 0 0 0
1 4 2 2 1 1 3 0 3 0 0 0 0 0 0 1 2 1 2 3 1 2 3 0 0 0 1 0 0 0 0 0
1 1 0 1 0 0 0 0 0 0 0 0 0 0 2 3 2 1 2 2 2 2 3 2 1 1 0 0 0 1 1 1
CIN
0 0 -3 -18 -14 -39 -32 -96 -85 -68 -134 -194 -139 -155 -87 -51 -33 -14 0 0 -4 0 -4 -30 -24 -22 -0 -1 -15 -1 -0 -2
0 0 -4 -20 -8 -42 -48 -84 -84 -101 -140 -165 -169 -76 -53 -46 -43 -76 -44 -2 0 0 -1 -10 -35 -13 -10 -3 -20 -1 -11 -20
0 0 -7 -37 -37 -46 -54 -90 -102 -132 -127 -171 -185 -102 -33 -13 -22 -20 -66 -48 -13 -5 -4 -28 -7 -26 -36 -14 -3 -8 -4 -6
0 0 -20 -43 -47 -60 -51 -90 -132 -155 -132 -170 -169 -148 -69 -72 -19 -3 -11 -0 0 0 -28 -50 -44 -1 0 -24 -23 -11 -4 -3
0 0 -25 -43 -52 -60 -36 -80 -131 -132 -136 -188 -158 -122 -131 -34 -36 -13 -2 -0 -0 -0 -17 -4 -47 -1 -1 -3 -10 -15 -6 -0
0 0 0 -20 -54 -58 -42 -72 -104 -113 -119 -118 -122 -111 -84 -56 -73 -42 -46 -6 0 -52 -1 0 0 -0 -1 0 -10 -9 -6 -3
0 0 0 -3 -39 -28 -61 -77 -94 -92 -81 -119 -120 -112 -110 -63 -83 -66 -0 -80 0 0 0 0 -0 -1 -0 -0 -10 -4 -3 0
-17 0 -9 -8 -26 -49 -71 -70 -132 -83 -100 -136 -142 -119 -104 -148 -79 -94 -2 0 0 0 0 0 0 0 -14 -7 -8 -4 -3 -1
-1 -1 -2 -20 -25 -43 -74 -79 -158 -98 -104 -136 -148 -129 -120 -90 -62 -116 -111 -84 -0 0 0 0 0 0 -1 -7 -1 -0 -4 -2
-3 -1 -25 -34 -24 -86 -119 -94 -254 -147 -100 -116 -153 -139 -196 -167 -130 -82 -53 -54 -22 0 0 0 0 0 0 0 -26 -2 -1 -5
-57 -9 -4 -20 -53 -198 -222 -161 -294 -198 -104 -118 -177 -172 -212 -162 -136 -137 -5 -59 0 0 -2 0 0 -0 0 0 0 0 0 -56
0 -19 -2 -32 -238 -280 -221 -253 -249 -225 -235 -195 -228 -199 -193 -180 -177 -4 -2 -1 -0 -2 0 -2 -1 0 -0 0 -0 0 0 0
0 0 0 -227 -278 -278 -272 -200 -296 -288 -276 -248 -225 -0 -0 0 0 0 0 0 0 -0 -2 -2 0 0 0 0 -0 -1 0 0
0 0 0 0 0 0 0 -187 -218 -0 -232 -1 -4 -153 -158 -0 -2 -2 -3 -1 -3 -0 -1 -0 -0 0 0 0 -0 0 0 0
0 0 0 0 0 0 0 0 0 -1 -0 0 -5 -4 -0 -0 -2 -1 -2 -1 -7 -5 -1 -0 -2 -2 -0 -0 0 0 -6 -16
0 0 0 0 0 0 0 0 0 0 0 0 0 0 0 0 0 0 0 0 0 0 -0 0 0 0 0 0 0 -0 -1 -0
0 0 0 0 0 0 0 0 0 0 0 0 0 0 0 0 0 0 0 0 0 0 0 0 0 0 0 0 0 0 0 0
0 0 0 0 0 0 0 0 0 0 0 0 0 0 0 0 0 0 0 0 0 0 0 0 0 0 0 0 0 0 0 0
0 0 0 0 0 0 0 0 0 0 0 -0 -0 0 0 0 0 0 0 0 0 0 0 0 0 0 0 0 0 0 0 0
Wind_Speed
18 19 15 14 17 19 18 15 16 14 10 8 7 6 4 4 5 7 9 9 9 10 8 9 9 8 8 7 9 9 10 10
15 17 10 13 16 19 19 17 16 12 10 9 8 7 8 6 6 8 7 7 9 11 7 11 10 10 9 9 7 12 10 10
18 16 14 15 17 19 19 18 17 14 10 9 7 7 7 7 7 9 10 11 12 4 12 11 13 9 11 8 8 9 9 10
18 19 15 16 18 19 19 19 18 15 13 9 7 6 5 6 8 7 7 8 10 10 10 11 12 11 11 12 8 12 8 9
17 18 19 18 17 18 19 19 18 16 15 12 13 9 8 8 8 6 6 6 7 8 8 15 15 11 12 11 8 9 12 12
20 20 19 18 17 17 17 19 19 17 16 14 12 13 9 7 6 8 5 5 4 5 11 12 13 10 13 12 10 11 9 10
19 18 20 19 17 17 18 20 18 18 16 14 13 11 10 7 8 7 5 5 5 4 6 10 11 12 13 11 11 14 11 9
11 11 11 12 19 19 18 20 18 18 16 14 12 11 12 10 10 7 9 5 4 6 5 6 6 9 13 12 11 13 12 9
9 14 11 15 18 20 20 20 18 17 16 15 13 13 8 7 7 8 7 6 7 8 7 7 7 5 7 7 9 8 9 8
20 5 8 12 15 14 11 18 15 15 15 13 12 8 9 8 8 7 5 8 8 12 9 10 9 8 7 7 5 9 8 8
21 6 7 10 16 13 7 9 13 15 13 11 10 11 11 9 8 8 6 6 7 9 12 11 10 11 11 10 7 7 7 4
18 21 6 14 13 11 9 9 13 11 9 11 9 7 8 9 7 7 6 5 5 7 9 10 9 11 11 11 10 9 10 8
15 14 16 7 9 8 8 9 10 10 10 10 7 8 8 9 7 7 6 6 4 4 4 10 10 9 10 11 11 11 12 12
15 14 14 13 13 9 8 5 9 11 9 7 5 5 9 9 8 7 7 6 6 4 4 4 8 9 10 10 10 11 11 11
14 13 13 13 12 12 12 14 11 9 8 10 8 4 5 4 3 6 8 7 6 6 5 5 5 4 1 3 8 9 10 11
14 13 12 13 12 12 13 13 12 11 12 12 10 9 10 11 11 10 11 12 11 11 4 13 13 12 10 10 7 4 12 12
13 13 13 13 13 11 12 12 12 11 12 12 10 10 10 11 11 12 12 12 13 14 14 14 13 9 15 14 11 6 7 9
13 11 11 11 12 12 12 11 9 12 12 11 9 10 11 10 12 13 13 13 12 14 13 13 13 13 19 17 12 6 10 10
9 9 10 9 10 10 10 12 12 12 12 11 10 11 13 12 12 14 13 11 13 11 11 11 12 13 21 18 9 12 11 13
Wind_Direction
223 221 206 202 187 177 171 177 180 180 153 177 171 149 184 175 185 196 205 192 182 194 170 153 161 158 168 177 190 186 173 149
228 219 194 199 183 176 177 178 179 173 175 178 174 188 189 187 190 185 179 195 213 198 188 160 167 171 172 176 195 182 195 155
229 221 181 200 186 181 177 177 181 175 183 178 164 180 206 198 193 189 192 206 208 229 169 166 168 166 166 172 189 197 189 151
226 220 184 191 192 183 181 179 181 181 178 167 161 171 199 197 197 186 204 207 212 192 161 162 168 164 175 182 193 192 177 170
242 224 182 192 197 185 183 178 178 183 173 163 180 179 188 207 189 179 198 220 221 167 184 188 166 169 177 185 192 199 183 182
227 230 200 190 188 184 183 177 180 179 186 171 189 194 192 199 173 156 180 142 162 190 184 168 163 168 171 176 192 204 204 190
232 222 217 176 181 177 184 178 178 181 182 179 194 179 191 179 167 158 158 146 154 124 163 165 165 163 164 182 194 201 204 192
291 252 232 177 180 176 181 178 181 179 179 179 188 181 185 184 176 162 151 149 154 154 141 142 149 161 165 180 196 209 204 199
297 247 203 197 179 178 181 175 181 181 176 178 182 191 188 182 177 161 174 167 169 152 153 148 151 153 150 177 192 196 203 201
314 256 195 181 170 156 186 180 158 187 177 175 177 174 178 172 168 172 174 165 163 167 167 161 165 166 167 170 185 195 199 205
337 310 177 169 128 148 198 150 157 180 175 164 177 180 176 170 170 172 172 185 182 171 179 178 174 177 176 179 181 180 180 179
348 345 9 91 117 144 173 156 168 157 173 148 174 174 176 159 174 177 192 153 162 188 182 172 172 179 178 184 187 177 184 192
358 1 17 64 108 138 145 174 148 154 172 147 174 164 170 166 166 160 164 151 152 161 204 175 174 173 175 183 185 190 194 200
10 9 22 20 31 47 41 96 149 133 146 158 136 148 163 160 171 168 165 157 154 162 187 182 169 178 182 191 195 191 195 196
20 14 17 25 26 39 40 46 40 84 97 79 73 72 99 103 73 149 162 166 163 168 181 165 177 177 50 231 203 201 205 213
24 17 16 20 27 35 43 47 50 54 76 73 64 59 66 63 53 45 55 62 52 47 59 60 64 54 28 3 331 299 221 219
48 22 21 21 30 39 47 48 51 58 65 68 65 60 58 66 61 56 55 56 56 68 64 66 58 48 9 10 0 351 11 14
68 37 26 20 29 32 50 48 57 60 64 60 68 79 73 65 75 66 56 54 54 58 63 66 56 31 11 6 1 46 63 51
60 58 37 27 45 43 57 57 50 47 62 62 61 72 75 67 69 80 72 64 61 57 61 62 54 28 12 3 2 80 75 64